TimeCST,TemperatureF,Dew PointF,Humidity,Sea Level PressureIn,VisibilityMPH,Wind Direction,Wind SpeedMPH,Gust SpeedMPH,PrecipitationIn,Events,Conditions,WindDirDegrees,DateUTC
12:52 AM,46.0,34.0,63,-9999,10.0,SE,12.7,-,N/A,,Clear,130,2013-11-04 06:52:00
1:52 AM,46.0,34.0,63,-9999,10.0,SE,11.5,-,N/A,,Clear,140,2013-11-04 07:52:00
2:52 AM,46.0,34.0,63,-9999,10.0,SE,11.5,-,N/A,,Clear,130,2013-11-04 08:52:00
3:52 AM,45.0,34.0,65,-9999,10.0,SE,12.7,-,N/A,,Clear,130,2013-11-04 09:52:00
4:52 AM,45.0,34.0,65,30.10,10.0,SE,13.8,19.6,N/A,,Clear,140,2013-11-04 10:52:00
5:52 AM,45.0,35.1,68,30.13,10.0,SSE,13.8,20.7,N/A,,Clear,150,2013-11-04 11:52:00
6:52 AM,45.0,35.1,68,30.11,10.0,SSE,12.7,21.9,N/A,,Clear,150,2013-11-04 12:52:00
7:52 AM,46.9,36.0,66,30.12,10.0,SSE,16.1,24.2,N/A,,Clear,160,2013-11-04 13:52:00
8:52 AM,48.0,37.0,66,30.09,10.0,SSE,12.7,21.9,N/A,,Clear,160,2013-11-04 14:52:00
9:52 AM,50.0,37.0,61,30.09,10.0,South,13.8,20.7,N/A,,Scattered Clouds,170,2013-11-04 15:52:00
10:52 AM,52.0,39.9,63,30.08,10.0,South,13.8,20.7,0.00,Rain,Light Rain,180,2013-11-04 16:52:00
11:52 AM,53.1,39.0,59,30.07,10.0,South,16.1,24.2,0.00,,Overcast,190,2013-11-04 17:52:00
12:52 PM,55.9,39.9,55,30.04,10.0,South,16.1,24.2,N/A,,Overcast,180,2013-11-04 18:52:00
1:52 PM,55.9,39.9,55,30.04,10.0,South,12.7,20.7,N/A,,Overcast,170,2013-11-04 19:52:00
2:52 PM,55.9,41.0,57,30.05,10.0,South,10.4,-,N/A,,Overcast,190,2013-11-04 20:52:00
3:52 PM,55.0,41.0,59,30.07,10.0,SSW,10.4,-,N/A,,Overcast,200,2013-11-04 21:52:00
4:52 PM,54.0,41.0,62,30.08,10.0,SSW,10.4,-,N/A,,Overcast,200,2013-11-04 22:52:00
5:52 PM,53.1,42.1,66,30.11,10.0,South,5.8,-,N/A,,Overcast,180,2013-11-04 23:52:00
6:52 PM,53.1,42.1,66,30.13,10.0,South,6.9,-,N/A,,Overcast,170,2013-11-05 00:52:00
7:52 PM,53.1,42.1,66,30.14,10.0,South,5.8,-,N/A,,Overcast,170,2013-11-05 01:52:00
8:52 PM,53.1,42.1,66,30.14,10.0,South,8.1,-,N/A,,Overcast,180,2013-11-05 02:52:00
9:52 PM,53.1,43.0,69,30.15,10.0,South,5.8,-,N/A,,Overcast,180,2013-11-05 03:52:00
10:52 PM,53.1,43.0,69,30.16,10.0,South,6.9,-,N/A,,Overcast,180,2013-11-05 04:52:00
11:52 PM,53.1,43.0,69,30.16,10.0,South,6.9,-,N/A,,Overcast,170,2013-11-05 05:52:00